| time (UTC) | temp C | wind direction | speed KPH | gust KPH | rain 1hr cm | rain 24hr cm | rain mn cm | humidity % | barometer mb |
| 20260508220030 | 20 | 207 | 4.8 | 11.3 | 0.00 | 0.00 | 0.00 | 45 | 1006.2 |
| 20260508214532 | 19 | 230 | 4.8 | 16.1 | 0.00 | 0.00 | 0.00 | 46 | 1006.3 |
| 20260508213026 | 20 | 217 | 1.6 | 9.7 | 0.00 | 0.00 | 0.00 | 42 | 1006.4 |
| 20260508211525 | 19 | 223 | 4.8 | 12.9 | 0.00 | 0.00 | 0.00 | 45 | 1006.4 |
| 20260508210032 | 20 | 337 | 1.6 | 8.0 | 0.00 | 0.00 | 0.00 | 47 | 1006.5 |
| 20260508204522 | 20 | 240 | 3.2 | 8.0 | 0.00 | 0.00 | 0.00 | 46 | 1006.6 |
| 20260508203021 | 19 | 192 | 3.2 | 17.7 | 0.00 | 0.00 | 0.00 | 50 | 1006.7 |
| 20260508201514 | 18 | 198 | 3.2 | 11.3 | 0.00 | 0.00 | 0.00 | 52 | 1007.1 |
| 20260508200014 | 18 | 185 | 4.8 | 11.3 | 0.00 | 0.00 | 0.00 | 53 | 1007.4 |
| 20260508194509 | 18 | 216 | 3.2 | 9.7 | 0.00 | 0.00 | 0.00 | 52 | 1007.7 |
| 20260508193007 | 18 | 355 | 1.6 | 6.4 | 0.00 | 0.00 | 0.00 | 50 | 1007.8 |
| 20260508191506 | 18 | 222 | 0.0 | 4.8 | 0.00 | 0.00 | 0.00 | 50 | 1007.9 |
| 20260508190004 | 18 | 242 | 0.0 | 8.0 | 0.00 | 0.00 | 0.00 | 50 | 1008.0 |
| 20260508184615 | 18 | 23 | 1.6 | 11.3 | 0.00 | 0.00 | 0.00 | 50 | 1008.3 |
| 20260508183101 | 17 | 20 | 1.6 | 11.3 | 0.00 | 0.00 | 0.00 | 55 | 1008.5 |
| 20260508181603 | 18 | 196 | 4.8 | 11.3 | 0.00 | 0.00 | 0.00 | 52 | 1008.5 |
| 20260508180058 | 18 | 230 | 1.6 | 11.3 | 0.00 | 0.00 | 0.00 | 58 | 1008.8 |
| 20260508174551 | 17 | 229 | 0.0 | 8.0 | 0.00 | 0.00 | 0.00 | 60 | 1009.1 |
| 20260508173048 | 17 | 290 | 1.6 | 8.0 | 0.00 | 0.00 | 0.00 | 61 | 1009.2 |
| 20260508171546 | 17 | 325 | 0.0 | 11.3 | 0.00 | 0.00 | 0.00 | 64 | 1009.4 |
| 20260508170043 | 17 | 190 | 1.6 | 8.0 | 0.00 | 0.00 | 0.00 | 65 | 1009.8 |
| 20260508164539 | 16 | 166 | 1.6 | 11.3 | 0.00 | 0.00 | 0.00 | 69 | 1009.9 |
| 20260508163050 | 16 | 248 | 1.6 | 17.7 | 0.00 | 0.00 | 0.00 | 69 | 1010.2 |
| 20260508161549 | 16 | 196 | 3.2 | 11.3 | 0.00 | 0.00 | 0.00 | 70 | 1010.4 |
| 20260508160035 | 16 | 198 | 4.8 | 9.7 | 0.00 | 0.00 | 0.00 | 70 | 1010.5 |
| 20260508154534 | 16 | 209 | 0.0 | 11.3 | 0.00 | 0.00 | 0.00 | 69 | 1010.4 |
| 20260508153049 | 16 | 238 | 0.0 | 8.0 | 0.00 | 0.00 | 0.00 | 71 | 1010.6 |
| 20260508151527 | 15 | 194 | 1.6 | 8.0 | 0.00 | 0.00 | 0.00 | 72 | 1010.7 |
| 20260508150026 | 15 | 196 | 0.0 | 4.8 | 0.00 | 0.00 | 0.00 | 73 | 1010.9 |
| 20260508144525 | 15 | 197 | 3.2 | 9.7 | 0.00 | 0.00 | 0.00 | 73 | 1010.9 |
| 20260508143021 | 14 | 186 | 0.0 | 9.7 | 0.00 | 0.00 | 0.00 | 77 | 1011.1 |
| 20260508141518 | 13 | 236 | 0.0 | 11.3 | 0.00 | 0.00 | 0.00 | 81 | 1011.2 |
| 20260508140014 | 12 | 202 | 0.0 | 4.8 | 0.00 | 0.00 | 0.00 | 84 | 1011.2 |
| 20260508134515 | 12 | 183 | 1.6 | 6.4 | 0.00 | 0.00 | 0.00 | 82 | 1011.3 |
| 20260508133008 | 11 | 190 | 0.0 | 8.0 | 0.00 | 0.00 | 0.00 | 83 | 1011.4 |
| 20260508131505 | 11 | 227 | 0.0 | 4.8 | 0.00 | 0.00 | 0.00 | 85 | 1011.3 |
| 20260508130004 | 10 | 229 | 0.0 | 4.8 | 0.00 | 0.00 | 0.00 | 87 | 1011.4 |
| 20260508124501 | 8 | 230 | 0.0 | 1.6 | 0.00 | 0.00 | 0.00 | 87 | 1011.4 |
| 20260508123002 | 8 | 230 | 0.0 | 0.0 | 0.00 | 0.00 | 0.00 | 87 | 1011.4 |
| 20260508121602 | 8 | 230 | 0.0 | 1.6 | 0.00 | 0.00 | 0.00 | 88 | 1011.1 |
| 20260508120114 | 8 | 228 | 0.0 | 1.6 | 0.00 | 0.00 | 0.00 | 89 | 1011.3 |
| 20260508114604 | 7 | 229 | 0.0 | 3.2 | 0.00 | 0.00 | 0.00 | 89 | 1011.2 |
| 20260508113104 | 7 | 228 | 0.0 | 0.0 | 0.00 | 0.00 | 0.00 | 89 | 1011.2 |
| 20260508111604 | 7 | 229 | 0.0 | 0.0 | 0.00 | 0.00 | 0.00 | 89 | 1010.9 |
| 20260508110105 | 7 | 229 | 0.0 | 0.0 | 0.00 | 0.00 | 0.00 | 89 | 1011.0 |
| 20260508104559 | 7 | 229 | 0.0 | 0.0 | 0.00 | 0.00 | 0.00 | 89 | 1010.8 |
| 20260508103059 | 7 | 229 | 0.0 | 0.0 | 0.00 | 0.00 | 0.00 | 88 | 1010.9 |
| 20260508101556 | 7 | 228 | 0.0 | 0.0 | 0.00 | 0.00 | 0.00 | 88 | 1011.2 |
| 20260508100123 | 7 | 229 | 0.0 | 0.0 | 0.00 | 0.00 | 0.00 | 88 | 1011.3 |
| 20260508094552 | 7 | 228 | 0.0 | 1.6 | 0.00 | 0.00 | 0.00 | 87 | 1011.3 |
| 20260508093051 | 7 | 229 | 0.0 | 0.0 | 0.00 | 0.00 | 0.00 | 87 | 1011.3 |
| 20260508091606 | 7 | 229 | 0.0 | 0.0 | 0.00 | 0.00 | 0.00 | 85 | 1011.4 |
| 20260508090050 | 7 | 229 | 0.0 | 0.0 | 0.00 | 0.00 | 0.00 | 84 | 1011.6 |
| 20260508084545 | 7 | 229 | 0.0 | 0.0 | 0.00 | 0.00 | 0.00 | 84 | 1011.5 |
| 20260508083043 | 8 | 229 | 0.0 | 3.2 | 0.00 | 0.00 | 0.00 | 83 | 1011.7 |
| 20260508081601 | 8 | 229 | 0.0 | 0.0 | 0.00 | 0.00 | 0.00 | 82 | 1011.6 |
| 20260508080041 | 8 | 229 | 0.0 | 0.0 | 0.00 | 0.00 | 0.00 | 81 | 1011.7 |
| 20260508074541 | 8 | 229 | 0.0 | 0.0 | 0.00 | 0.00 | 0.00 | 81 | 1011.8 |
| 20260508073043 | 8 | 229 | 0.0 | 0.0 | 0.00 | 0.00 | 0.00 | 79 | 1011.9 |
| 20260508071538 | 9 | 229 | 0.0 | 0.0 | 0.00 | 0.00 | 0.00 | 77 | 1012.0 |
| 20260508070031 | 9 | 229 | 0.0 | 0.0 | 0.00 | 0.00 | 0.00 | 77 | 1012.1 |
| 20260508064532 | 10 | 229 | 0.0 | 0.0 | 0.00 | 0.00 | 0.00 | 76 | 1012.1 |
| 20260508063027 | 10 | 229 | 0.0 | 1.6 | 0.00 | 0.00 | 0.00 | 74 | 1012.1 |
| 20260508061525 | 10 | 229 | 0.0 | 4.8 | 0.00 | 0.00 | 0.00 | 74 | 1012.2 |
| 20260508060028 | 10 | 242 | 0.0 | 3.2 | 0.00 | 0.00 | 0.00 | 74 | 1012.2 |
| 20260508054602 | 10 | 246 | 0.0 | 3.2 | 0.00 | 0.00 | 0.00 | 75 | 1012.2 |
| 20260508053028 | 10 | 245 | 0.0 | 4.8 | 0.00 | 0.00 | 0.00 | 75 | 1012.1 |
| 20260508051521 | 10 | 232 | 0.0 | 6.4 | 0.00 | 0.00 | 0.00 | 75 | 1012.0 |
| 20260508050019 | 10 | 267 | 0.0 | 4.8 | 0.00 | 0.00 | 0.00 | 75 | 1012.0 |
| 20260508044518 | 10 | 277 | 0.0 | 3.2 | 0.00 | 0.00 | 0.00 | 75 | 1011.9 |
| 20260508043019 | 10 | 219 | 0.0 | 6.4 | 0.00 | 0.00 | 0.00 | 75 | 1011.9 |
| 20260508041517 | 11 | 294 | 0.0 | 1.6 | 0.00 | 0.00 | 0.00 | 73 | 1011.8 |
| 20260508040017 | 11 | 355 | 0.0 | 3.2 | 0.00 | 0.00 | 0.00 | 72 | 1011.6 |
| 20260508034519 | 11 | 360 | 4.8 | 8.0 | 0.00 | 0.00 | 0.00 | 71 | 1011.6 |
| 20260508033027 | 12 | 252 | 3.2 | 9.7 | 0.00 | 0.00 | 0.00 | 69 | 1011.3 |
| 20260508031515 | 12 | 216 | 3.2 | 11.3 | 0.00 | 0.00 | 0.00 | 68 | 1011.3 |
| 20260508030015 | 12 | 152 | 1.6 | 11.3 | 0.00 | 0.00 | 0.00 | 67 | 1011.2 |
| 20260508024514 | 12 | 203 | 4.8 | 9.7 | 0.00 | 0.00 | 0.00 | 65 | 1011.1 |
| 20260508023014 | 12 | 208 | 1.6 | 8.0 | 0.00 | 0.00 | 0.00 | 60 | 1011.0 |
| 20260508021514 | 12 | 201 | 1.6 | 6.4 | 0.00 | 0.00 | 0.00 | 58 | 1011.0 |
| 20260508020015 | 11 | 191 | 3.2 | 6.4 | 0.00 | 0.00 | 0.00 | 62 | 1010.8 |
| 20260508014513 | 10 | 190 | 0.0 | 3.2 | 0.00 | 0.00 | 0.00 | 66 | 1010.6 |
| 20260508013014 | 10 | 190 | 0.0 | 0.0 | 0.00 | 0.00 | 0.00 | 70 | 1010.4 |
| 20260508011512 | 11 | 190 | 0.0 | 6.4 | 0.00 | 0.00 | 0.00 | 66 | 1010.4 |
| 20260508010024 | 12 | 12 | 0.0 | 0.0 | 0.00 | 0.00 | 0.00 | 66 | 1010.3 |
| 20260508004519 | 12 | 12 | 0.0 | 0.0 | 0.00 | 0.00 | 0.00 | 63 | 1010.2 |
| 20260508003011 | 13 | 12 | 0.0 | 0.0 | 0.00 | 0.00 | 0.00 | 61 | 1010.2 |
| 20260508001510 | 13 | 12 | 0.0 | 0.0 | 0.00 | 0.00 | 0.00 | 57 | 1010.2 |
| 20260508000009 | 14 | 12 | 0.0 | 0.0 | 0.00 | 0.00 | 0.00 | 57 | 1010.1 |
| 20260507234509 | 15 | 12 | 0.0 | 8.0 | 0.00 | 0.00 | 0.00 | 49 | 1010.2 |
| 20260507233008 | 15 | 355 | 1.6 | 9.7 | 0.00 | 0.00 | 0.00 | 51 | 1010.2 |
| 20260507231508 | 14 | 348 | 6.4 | 16.1 | 0.00 | 0.00 | 0.00 | 50 | 1010.4 |
| 20260507230008 | 15 | 348 | 6.4 | 17.7 | 0.00 | 0.00 | 0.00 | 51 | 1010.6 |
| 20260507224512 | 15 | 355 | 8.0 | 19.3 | 0.00 | 0.00 | 0.00 | 49 | 1010.5 |
| 20260507223006 | 16 | 290 | 6.4 | 14.5 | 0.00 | 0.00 | 0.00 | 40 | 1010.3 |
| 20260507221508 | 17 | 225 | 6.4 | 14.5 | 0.00 | 0.00 | 0.00 | 40 | 1010.2 |